Crystal River, FL

2:35 AM EST on November 22, 2017 (GMT -0500)
Crystal River

Weather History for KCGC - December, 2013

Change the Weather History Date:

Wednesday, December 25, 2013

  Actual Average (KBKV) Record (KBKV)
Temperature  
Mean Temperature 55 °F -  
Max Temperature 71 °F 66 °F 86 °F (2015)
Min Temperature 39 °F 43 °F 33 °F (1999)
Degree Days  
Heating Degree Days 10    
Growing Degree Days 5 (Base 50)    
Moisture  
Dew Point 43 °F    
Average Humidity 67    
Maximum Humidity 94    
Minimum Humidity 46    
Precipitation  
Precipitation 0.00 in - - ()
Sea Level Pressure  
Sea Level Pressure 30.24 in    
Wind  
Wind Speed 4 mph (ENE)    
Max Wind Speed 14 mph    
Max Gust Speed 22 mph    
Visibility 10 miles    
Events      
Averages and records for this station are not official NWS values.
T = Trace of Precipitation, MM = Missing Value Source: NWS Daily Summary

Daily Weather History Graph

Daily Weather History Graph

Search for Another Location

Airport or City:

Trip Planner

Search our weather history database for the weather conditions in past years. The results will help you decide how hot, cold, wet, or windy it might be!

Date:

Astronomy

Dec. 25, 2013 Rise Set
Actual Time 7:21 AM EST 5:39 PM EST
Civil Twilight 6:55 AM EST 6:05 PM EST
Nautical Twilight 6:25 AM EST 6:35 PM EST
Astronomical Twilight 5:56 AM EST 7:04 PM EST
Moon 12:14 AM EST (12/25) 12:19 PM EST (12/25)
Length of Visible Light 11h 10m
Length of Day
10h 18m
Waning Gibbous, 49% of the Moon is Illuminated
Dec 25
Waning Gibbous
Jan 1
New
Jan 7
First Quarter
Jan 15
Full
Jan 24
Last Quarter

Hourly Weather History & Observations

Time (EST) Temp. Windchill Dew Point Humidity Pressure Visibility Wind Dir Wind Speed Gust Speed Precip Events Conditions
12:15 AM 42.8 °F - 32.0 °F 66% 30.30 in 10.0 mi Calm Calm - N/A   Clear
12:35 AM 42.8 °F - 32.0 °F 66% 30.30 in 10.0 mi Calm Calm - N/A   Clear
12:55 AM 42.8 °F - 32.0 °F 66% 30.30 in 10.0 mi Calm Calm - N/A   Clear
1:15 AM 42.8 °F 41.1 °F 32.0 °F 66% 30.29 in 10.0 mi NNE 3.5 mph - N/A   Clear
1:35 AM 42.8 °F - 32.0 °F 66% 30.28 in 10.0 mi Calm Calm - N/A   Clear
1:55 AM 42.8 °F - 32.0 °F 66% 30.28 in 10.0 mi Calm Calm - N/A   Clear
2:15 AM 42.8 °F - 32.0 °F 66% 30.27 in 10.0 mi Calm Calm - N/A   Clear
2:35 AM 41.0 °F - 32.0 °F 70% 30.27 in 10.0 mi Calm Calm - N/A   Clear
2:55 AM 41.0 °F 39.0 °F 32.0 °F 70% 30.27 in 10.0 mi NNE 3.5 mph - N/A   Clear
3:15 AM 41.0 °F - 30.2 °F 65% 30.26 in 10.0 mi Calm Calm - N/A   Clear
3:35 AM 41.0 °F 39.0 °F 30.2 °F 65% 30.26 in 10.0 mi NNE 3.5 mph - N/A   Clear
3:55 AM 41.0 °F 39.0 °F 30.2 °F 65% 30.26 in 10.0 mi NNE 3.5 mph - N/A   Clear
4:15 AM 41.0 °F 39.0 °F 32.0 °F 70% 30.26 in 10.0 mi NNE 3.5 mph - N/A   Clear
4:35 AM 41.0 °F 39.0 °F 32.0 °F 70% 30.25 in 10.0 mi NNE 3.5 mph - N/A   Clear
4:55 AM 41.0 °F - 32.0 °F 70% 30.25 in 10.0 mi Calm Calm - N/A   Clear
5:15 AM 41.0 °F 39.0 °F 32.0 °F 70% 30.25 in 10.0 mi NNE 3.5 mph - N/A   Clear
5:35 AM 41.0 °F 39.0 °F 32.0 °F 70% 30.25 in 10.0 mi NNE 3.5 mph - N/A   Clear
5:55 AM 41.0 °F 39.0 °F 32.0 °F 70% 30.25 in 10.0 mi NNE 3.5 mph - N/A   Clear
6:15 AM 39.2 °F 37.0 °F 32.0 °F 75% 30.24 in 10.0 mi NE 3.5 mph - N/A   Clear
6:35 AM 39.2 °F 37.0 °F 32.0 °F 75% 30.26 in 10.0 mi NNE 3.5 mph - N/A   Clear
6:55 AM 41.0 °F 37.1 °F 32.0 °F 70% 30.26 in 10.0 mi NE 5.8 mph - N/A   Clear
7:15 AM 41.0 °F 37.1 °F 32.0 °F 70% 30.26 in 10.0 mi NE 5.8 mph - N/A   Clear
7:35 AM 41.0 °F 39.0 °F 32.0 °F 70% 30.27 in 10.0 mi NE 3.5 mph - N/A   Clear
7:55 AM 41.0 °F 39.0 °F 32.0 °F 70% 30.27 in 10.0 mi NNE 3.5 mph - N/A   Clear
8:15 AM 42.8 °F 39.3 °F 33.8 °F 70% 30.27 in 10.0 mi NNE 5.8 mph - N/A   Clear
8:35 AM 44.6 °F 42.2 °F 33.8 °F 66% 30.28 in 10.0 mi NE 4.6 mph - N/A   Clear
8:55 AM 46.4 °F 42.9 °F 35.6 °F 66% 30.28 in 10.0 mi NE 6.9 mph - N/A   Clear
9:15 AM 46.4 °F 42.9 °F 35.6 °F 66% 30.28 in 10.0 mi NE 6.9 mph - N/A   Clear
9:35 AM 50.0 °F - 37.4 °F 62% 30.28 in 10.0 mi NE 8.1 mph - N/A   Clear
9:55 AM 51.8 °F - 41.0 °F 67% 30.29 in 10.0 mi NE 8.1 mph - N/A   Clear
10:15 AM 55.4 °F - 42.8 °F 63% 30.29 in 10.0 mi ENE 9.2 mph - N/A   Clear
10:35 AM 55.4 °F - 42.8 °F 63% 30.29 in 10.0 mi NE 10.4 mph - N/A   Clear
10:55 AM 59.0 °F - 44.6 °F 59% 30.28 in 10.0 mi ENE 8.1 mph - N/A   Clear
11:15 AM 59.0 °F - 44.6 °F 59% 30.28 in 10.0 mi East 5.8 mph - N/A   Clear
11:35 AM 62.6 °F - 46.4 °F 55% 30.27 in 10.0 mi East 8.1 mph - N/A   Clear
11:55 AM 64.4 °F - 46.4 °F 52% 30.26 in 10.0 mi NE 6.9 mph - N/A   Clear
12:15 PM 64.4 °F - 48.2 °F 56% 30.24 in 10.0 mi East 9.2 mph - N/A   Clear
12:35 PM 66.2 °F - 50.0 °F 56% 30.23 in 10.0 mi NE 8.1 mph - N/A   Clear
12:55 PM 68.0 °F - 50.0 °F 52% 30.21 in 10.0 mi East 8.1 mph - N/A   Clear
1:15 PM 69.8 °F - 50.0 °F 49% 30.20 in 10.0 mi ENE 10.4 mph - N/A   Clear
1:35 PM 69.8 °F - 50.0 °F 49% 30.19 in 10.0 mi East 10.4 mph - N/A   Clear
1:55 PM 69.8 °F - 50.0 °F 49% 30.19 in 10.0 mi East 12.7 mph 17.3 mph N/A   Clear
2:15 PM 69.8 °F - 50.0 °F 49% 30.19 in 10.0 mi East 11.5 mph 21.9 mph N/A   Clear
2:35 PM 71.6 °F - 50.0 °F 46% 30.19 in 10.0 mi East 13.8 mph 19.6 mph N/A   Clear
2:55 PM 71.6 °F - 50.0 °F 46% 30.19 in 10.0 mi East 6.9 mph 16.1 mph N/A   Clear
3:15 PM 71.6 °F - 50.0 °F 46% 30.18 in 10.0 mi East 11.5 mph 17.3 mph N/A   Clear
3:35 PM 71.6 °F - 50.0 °F 46% 30.18 in 10.0 mi East 10.4 mph - N/A   Clear
3:55 PM 71.6 °F - 50.0 °F 46% 30.18 in 10.0 mi East 9.2 mph - N/A   Clear
4:15 PM 71.6 °F - 50.0 °F 46% 30.18 in 10.0 mi East 8.1 mph - N/A   Clear
4:35 PM 71.6 °F - 50.0 °F 46% 30.18 in 10.0 mi East 8.1 mph - N/A   Clear
4:55 PM 69.8 °F - 51.8 °F 53% 30.19 in 10.0 mi East 6.9 mph - N/A   Clear
5:15 PM 68.0 °F - 51.8 °F 56% 30.19 in 10.0 mi East 5.8 mph - N/A   Clear
5:35 PM 66.2 °F - 51.8 °F 60% 30.19 in 10.0 mi East 4.6 mph - N/A   Clear
5:55 PM 62.6 °F - 51.8 °F 68% 30.19 in 10.0 mi ENE 6.9 mph - N/A   Clear
6:15 PM 62.6 °F - 51.8 °F 68% 30.19 in 10.0 mi East 3.5 mph - N/A   Clear
6:35 PM 62.6 °F - 51.8 °F 68% 30.20 in 10.0 mi East 3.5 mph - N/A   Clear
6:55 PM 60.8 °F - 51.8 °F 72% 30.21 in 10.0 mi NNE 4.6 mph - N/A   Clear
7:15 PM 60.8 °F - 53.6 °F 77% 30.21 in 10.0 mi NE 8.1 mph - N/A   Clear
7:35 PM 60.8 °F - 53.6 °F 77% 30.22 in 10.0 mi ENE 5.8 mph - N/A   Clear
7:55 PM 59.0 °F - 51.8 °F 77% 30.22 in 10.0 mi NE 9.2 mph - N/A   Clear
8:15 PM 59.0 °F - 51.8 °F 77% 30.22 in 10.0 mi ENE 9.2 mph - N/A   Clear
8:35 PM 57.2 °F - 51.8 °F 82% 30.23 in 10.0 mi ENE 6.9 mph - N/A   Clear
8:55 PM 55.4 °F - 51.8 °F 88% 30.23 in 10.0 mi ENE 6.9 mph - N/A   Clear
9:15 PM 55.4 °F - 51.8 °F 88% 30.23 in 10.0 mi ENE 8.1 mph - N/A   Clear
9:35 PM 55.4 °F - 51.8 °F 88% 30.23 in 10.0 mi ENE 6.9 mph - N/A   Clear
9:55 PM 53.6 °F - 51.8 °F 94% 30.22 in 10.0 mi ENE 9.2 mph 16.1 mph N/A   Scattered Clouds
10:15 PM 53.6 °F - 51.8 °F 94% 30.22 in 10.0 mi ENE 9.2 mph - N/A   Mostly Cloudy
10:35 PM 53.6 °F - 51.8 °F 94% 30.22 in 10.0 mi ENE 8.1 mph - N/A   Mostly Cloudy
10:55 PM 53.6 °F - 51.8 °F 94% 30.22 in 7.0 mi ENE 6.9 mph - N/A   Overcast
11:15 PM 53.6 °F - 51.8 °F 94% 30.22 in 7.0 mi NE 6.9 mph - N/A   Overcast
11:35 PM 53.6 °F - 51.8 °F 94% 30.21 in 7.0 mi ENE 9.2 mph - N/A   Overcast
11:55 PM 53.6 °F - 51.8 °F 94% 30.21 in 7.0 mi NE 8.1 mph - N/A   Overcast